Content
SEND FEEDBACK

Daily
Averages
Monthly
Summary
Mexico

CANCUN, QUINTANA ROO


Home > North America > Mexico > Quintana Roo
Elevation: 9 meters     Latitude: 21 09N     Longitude: 086 49W

WEATHER
 
SELECT A DAY
Number of Records: 165,801;   Date Range: 1/1/95 - 9/28/14
 
SHARE

PRINT THIS DATA

[ ← Previous Day ]
WEATHER ALMANAC - 17 APRIL, 2013
[ Next Day → ]
[ °F ]   °C
Weather ElementAverageHighLow
Temperature27.3 °C30 °C (12:45 pm)25 °C (5:45 am)
Dewpoint22.3 °C24 °C (1:50 am)4 °C (7:40 am)
Humidity76 %89 % (1:50 am)23 % (7:40 am)
Barometer1014.2 hPa1015.6 hPa (9:46 am)1012.5 hPa (4:41 pm)
Wind Speed18.3 km/h29.6 km/h (11:42 am)
Weather ElementAverage
Visibility11.3 km
Wind DirectionESE (119.1 °)

Weather ElementTotal
Precipitation---
Cooling Degree Days9.2 (Base 18.3)
Growing Degree Days17.5 (Base 10)
Averaged from 23 records on 17 April, 2013
WEATHER CONDITIONS BREAKOUT
WIND DIRECTION BREAKOUT
WEATHER BY HOUR - 17 APRIL, 2013
[ °F ]   °C
Local TimeTemperatureDewpointHumidityBarometerVisibilityWind DirectionWind SpeedGust SpeedPrecipitationEventsConditions
1:50 AM26 °C24 °C89 %1014.6 hPa11.3 kmESE (110°)14.8 km/hScattered Clouds
2:40 AM26 °C24 °C89 %1014.2 hPa11.3 kmESE (110°)11.1 km/hScattered Clouds
3:44 AM26 °C24 °C89 %1013.5 hPa11.3 kmESE (110°)13 km/hScattered Clouds
4:40 AM26 °C24 °C89 %1014.2 hPa11.3 kmEast (100°)13 km/hScattered Clouds
5:45 AM25 °C23 °C89 %1014.6 hPa11.3 kmESE (120°)5.6 km/hScattered Clouds
6:47 AM25 °C23 °C89 %1014.6 hPa11.3 kmEast (100°)7.4 km/hScattered Clouds
7:40 AM27 °C4 °C23 %1015.2 hPa11.3 kmEast (100°)16.7 km/hPartly Cloudy
8:42 AM28 °C24 °C79 %1015.2 hPa11.3 kmEast (100°)25.9 km/hMostly Cloudy
9:46 AM28 °C24 °C79 %1015.6 hPa11.3 kmESE (120°)27.8 km/hMostly Cloudy
10:43 AM29 °C24 °C74 %1014.9 hPa11.3 kmSE (130°)16.7 km/hMostly Cloudy
11:42 AM29 °C23 °C70 %1014.6 hPa11.3 kmSE (130°)29.6 km/hMostly Cloudy
12:45 PM30 °C23 °C66 %1014.6 hPa11.3 kmSE (130°)25.9 km/hMostly Cloudy
1:44 PM29 °C23 °C70 %1013.9 hPa11.3 kmSE (140°)24.1 km/hMostly Cloudy
2:45 PM29 °C22 °C66 %1013.5 hPa11.3 kmSE (140°)25.9 km/hMostly Cloudy
3:42 PM29 °C22 °C66 %1013.2 hPa11.3 kmSE (130°)25.9 km/hMostly Cloudy
4:41 PM28 °C22 °C70 %1012.5 hPa11.3 kmSE (130°)24.1 km/hMostly Cloudy
5:48 PM28 °C22 °C70 %1012.9 hPa11.3 kmESE (110°)16.7 km/hMostly Cloudy
6:45 PM27 °C22 °C74 %1013.2 hPa11.3 kmSE (130°)24.1 km/hScattered Clouds
7:40 PM27 °C23 °C79 %1013.5 hPa11.3 kmESE (120°)11.1 km/hScattered Clouds
8:42 PM27 °C23 °C79 %1013.9 hPa11.3 kmESE (110°)16.7 km/hScattered Clouds
9:48 PM26 °C23 °C83 %1012.9 hPa11.3 kmSE (130°)16.7 km/hScattered Clouds
10:48 PM26 °C23 °C83 %1014.2 hPa11.3 kmESE (110°)14.8 km/hPartly Cloudy
11:47 PM26 °C23 °C83 %1013.9 hPa11.3 kmSE (130°)13 km/hClear
Hourly data recorded from MMUN, located 0 kilometers away from Cancun, Quintana Roo







STORIES FROM OUR PARTNERS